Theta_e
297 298 302 307 308 312 315 315 316 313 313 313 310 310 308 310 310 311 312 312 313 312 310 309 308 307 304 302 301 302 301 299 297 298 297 294 292 291 290 289 288 288 288 288
297 301 306 305 308 308 312 313 314 313 313 305 306 307 309 310 311 312 312 311 309 307 306 305 304 301 300 299 298 300 296 295 295 294 293 291 290 289 288 288 288 287 287 287
299 300 302 304 308 307 308 311 312 314 312 309 306 308 309 310 311 312 312 309 307 305 303 301 300 298 297 296 295 295 293 292 292 292 290 289 288 288 288 287 287 287 286 286
297 301 303 304 303 306 306 307 308 309 307 307 308 307 308 309 311 311 310 307 304 303 301 299 298 296 294 293 292 291 290 290 290 290 289 288 288 287 287 287 286 286 286 285
297 302 301 299 304 306 306 307 305 306 306 304 305 306 307 308 309 309 307 304 302 300 298 296 294 293 292 291 290 289 288 289 289 288 288 287 287 287 286 286 286 286 285 285
297 302 305 302 303 299 303 308 303 305 305 302 305 306 305 307 305 304 302 299 297 295 293 293 292 292 291 289 289 287 287 288 288 288 287 287 287 286 286 285 285 285 284 284
294 296 299 300 300 299 306 306 299 301 302 303 306 305 304 304 302 299 296 294 293 293 292 291 291 291 289 288 287 287 288 287 287 287 287 286 286 285 285 285 284 284 284 284
295 298 297 297 301 305 300 296 299 299 301 303 301 303 301 298 295 293 293 293 292 291 290 290 289 289 287 286 286 287 287 287 286 286 286 285 285 285 285 284 284 284 283 283
296 296 295 293 293 293 292 295 297 297 298 299 298 296 295 293 293 292 291 290 289 289 288 288 288 288 286 285 286 286 286 286 285 285 285 285 285 284 284 284 283 283 283 282
294 296 289 289 290 290 290 292 293 295 295 294 293 293 292 291 290 289 289 288 288 288 287 286 286 286 285 285 286 286 285 285 284 284 284 284 284 284 284 283 283 282 282 282
291 293 291 290 289 288 289 290 291 291 291 291 291 290 289 289 289 288 288 287 287 286 285 285 285 285 286 286 286 285 284 284 284 284 283 283 283 283 283 282 283 282 282 282
291 289 288 287 287 287 288 288 289 288 288 288 288 288 288 288 287 287 286 286 285 285 285 284 284 284 285 285 285 284 284 283 283 282 283 283 282 282 282 282 282 282 282 282
287 286 286 286 286 286 286 286 287 287 287 287 287 287 287 287 286 287 286 285 285 284 283 283 283 284 284 284 284 284 283 283 282 282 282 281 281 281 280 280 281 281 281 281
287 287 286 286 286 286 286 286 287 286 286 286 287 287 286 286 285 285 284 284 283 283 283 282 283 283 283 283 283 283 283 282 282 282 281 281 280 280 280 280 279 279 279 280
286 286 286 286 286 286 285 285 285 285 286 286 286 285 285 285 284 284 283 283 282 282 282 282 282 282 283 283 283 283 282 282 282 281 281 280 280 280 280 280 280 279 278 278
286 286 286 285 285 285 285 285 285 285 285 285 284 284 284 283 283 283 283 283 283 282 281 282 282 282 282 282 282 282 282 282 281 281 280 280 280 280 279 279 279 278 278 278
286 285 285 285 285 285 285 285 285 284 284 284 284 283 283 282 282 282 282 282 282 281 281 281 281 281 281 281 282 283 282 281 280 280 280 280 280 279 279 278 278 277 277 277
285 285 285 284 284 284 284 284 284 284 283 283 283 282 282 282 281 281 281 281 281 281 281 282 282 281 281 281 281 281 280 280 280 279 280 279 279 278 278 277 277 276 276 276
283 283 283 283 283 283 283 283 283 283 282 282 282 281 281 281 280 281 281 281 281 281 281 282 282 281 281 281 280 280 280 279 279 279 279 279 277 277 277 276 276 276 275 276
282 282 282 281 281 282 282 282 282 281 281 281 281 280 280 280 280 280 281 280 281 281 282 281 281 280 281 281 280 279 279 279 279 279 278 277 277 276 276 276 275 275 275 276
280 280 280 279 279 279 279 280 280 279 280 280 279 279 279 279 280 280 280 279 280 281 281 281 280 280 280 280 279 279 279 279 278 278 277 276 276 275 275 275 275 275 276 276
278 278 278 278 278 277 278 278 279 279 279 279 279 279 279 279 279 279 280 280 281 281 280 281 281 281 280 279 279 279 278 278 277 276 275 275 275 275 275 275 275 275 276 276
277 277 277 277 276 276 277 277 277 278 277 278 278 278 278 278 279 279 279 280 280 280 280 280 281 281 280 278 278 278 278 277 276 275 275 275 275 275 274 275 275 276 276 276
275 275 275 276 276 276 275 276 276 277 277 277 277 277 278 278 278 279 279 280 280 280 280 280 282 280 279 278 278 277 277 276 275 275 275 275 275 275 274 274 275 276 277 276
274 274 275 275 275 275 275 276 276 276 276 276 277 277 277 277 278 278 279 279 280 279 280 281 280 279 278 277 277 276 276 276 275 275 275 275 275 275 274 275 276 276 277 277
274 274 274 274 274 275 275 275 275 276 276 276 277 277 277 277 278 278 278 278 278 279 280 281 280 278 277 277 276 276 276 275 276 276 275 276 275 274 275 276 276 277 277 277
274 274 274 274 274 274 275 275 275 275 275 276 277 277 277 277 277 277 278 278 278 278 278 278 278 277 277 276 276 275 275 275 275 275 275 275 274 275 276 276 277 277 276 276
Wind_Speed
19 17 14 12 11 20 21 20 10 13 12 10 3 5 4 3 5 6 8 9 12 15 14 17 24 27 30 31 37 41 40 40 39 39 38 34 29 25 20 16 12 8 5 2
9 14 10 19 13 13 21 21 19 19 16 4 4 4 4 4 5 7 8 13 10 9 15 17 25 28 31 33 37 42 39 40 42 40 36 31 27 23 18 14 11 7 4 1
5 9 14 11 8 13 9 19 17 15 16 3 5 5 6 6 6 8 11 12 15 14 12 19 26 32 33 36 39 39 42 43 42 39 34 29 24 20 16 12 9 6 3 0
5 9 3 7 15 14 20 16 14 12 9 7 8 9 12 11 14 13 14 15 15 14 18 23 28 31 35 37 38 39 40 41 39 36 32 27 22 18 15 11 8 5 2 1
3 3 9 16 7 2 9 17 18 15 16 7 5 5 2 2 6 9 12 12 13 20 25 26 28 34 38 36 38 39 37 39 36 32 30 25 20 16 13 10 7 5 2 1
1 3 3 5 4 6 3 9 10 16 18 9 10 4 4 9 14 14 13 19 21 26 29 30 30 36 39 35 36 33 38 38 33 29 25 21 17 15 12 9 6 4 2 2
9 4 7 9 4 8 2 3 8 8 7 6 8 6 9 16 15 15 18 25 27 29 30 32 32 37 35 34 31 38 38 35 29 24 21 18 16 13 11 9 6 4 2 2
6 5 9 3 1 3 2 4 4 7 5 2 9 14 17 17 16 18 17 24 28 27 27 30 34 39 34 32 36 39 36 32 27 23 20 18 15 14 10 7 5 4 3 4
5 5 3 5 5 6 5 6 4 5 3 12 16 16 17 16 18 17 17 22 27 31 29 28 31 41 38 31 39 36 33 30 26 22 18 16 14 12 9 7 5 4 4 5
8 4 9 9 7 7 6 4 6 4 6 13 18 16 18 17 16 16 20 24 27 32 31 29 33 35 37 37 35 33 32 27 24 22 19 15 12 10 9 7 5 2 2 4
6 7 11 4 8 7 7 9 11 11 10 13 19 17 16 17 18 18 23 26 28 30 31 31 34 35 36 33 31 31 29 27 23 19 16 15 13 10 8 6 4 3 4 7
4 9 5 6 7 7 8 13 11 16 16 14 16 19 20 16 19 26 27 30 31 31 34 30 33 33 31 28 28 30 28 24 20 18 16 15 12 11 8 6 6 6 5 5
6 6 3 3 8 8 12 14 14 17 17 20 17 18 19 19 26 35 33 33 30 29 30 30 31 30 25 23 23 24 26 22 18 17 15 13 11 10 8 7 6 6 5 4
4 3 6 9 6 11 15 16 21 20 22 20 24 27 28 27 31 31 29 29 30 31 30 30 30 26 21 20 21 22 20 17 18 16 14 12 11 9 8 6 4 3 6 6
8 8 7 9 12 14 13 15 19 18 19 20 30 27 29 24 25 27 28 30 31 30 27 28 27 23 19 19 20 20 20 18 16 14 12 11 10 9 7 5 3 5 9 9
13 13 13 13 16 17 17 17 20 19 19 18 22 27 29 31 30 28 26 23 26 21 22 24 24 20 18 19 19 18 17 16 15 14 12 11 9 9 6 6 6 8 9 11
14 13 14 18 19 18 18 14 16 16 17 21 24 27 30 29 27 25 24 25 25 24 22 22 20 17 16 14 15 17 17 14 13 14 12 10 10 8 7 7 8 8 10 11
17 16 16 17 16 16 17 17 23 25 21 25 25 25 25 23 20 20 21 24 24 22 19 17 17 16 15 13 15 16 15 15 15 13 11 11 9 8 7 8 8 10 12 12
24 18 23 23 23 21 19 21 24 25 24 23 24 22 21 20 20 21 22 22 20 18 15 15 14 14 13 13 14 14 15 15 13 11 11 9 9 8 8 8 9 11 12 12
24 27 28 26 28 25 22 24 24 24 21 21 22 21 19 18 19 20 19 17 13 15 14 13 13 12 13 11 11 12 13 12 12 11 10 8 8 7 7 7 8 12 11 12
18 21 21 21 21 23 23 21 21 20 20 21 20 16 17 15 15 16 17 14 12 11 11 11 9 10 10 10 11 12 11 11 9 8 7 7 6 6 5 7 9 11 12 12
16 17 17 18 20 21 22 21 21 20 19 18 17 15 15 14 14 13 11 13 11 8 8 8 8 8 9 9 10 9 9 9 8 6 7 5 5 5 5 6 8 11 11 12
17 17 17 18 17 17 22 21 19 18 17 14 12 11 10 8 7 11 9 7 7 5 7 6 7 10 9 8 8 7 7 5 5 6 5 3 3 5 5 7 9 10 11 12
16 17 17 18 20 19 16 16 14 13 12 11 10 8 7 8 8 6 8 5 4 4 6 4 12 9 4 6 6 6 5 5 4 4 3 1 2 5 5 7 10 9 11 13
17 18 19 18 15 14 16 12 13 12 10 10 9 7 6 5 4 6 5 4 4 3 2 6 12 7 5 6 6 5 4 3 3 4 3 2 4 6 6 7 10 11 13 13
17 16 16 16 14 13 12 13 12 11 10 9 8 7 5 4 3 2 2 0 1 1 6 15 11 5 5 6 6 5 5 5 4 4 4 4 5 6 6 10 9 9 12 13
14 13 13 14 13 14 12 8 9 9 7 4 6 3 3 2 0 1 1 1 3 1 1 3 3 3 5 6 5 6 6 7 6 5 7 6 5 4 7 9 10 9 10 12
Wind_Direction
313 303 288 274 267 204 218 231 230 246 226 253 297 320 301 276 60 76 91 108 137 143 136 144 146 143 140 141 143 152 153 156 156 160 158 155 153 154 156 157 157 159 165 180
294 304 334 324 264 230 223 227 234 250 259 156 232 77 88 99 133 120 118 122 115 129 137 141 142 140 139 138 137 150 144 144 153 151 151 152 152 152 154 153 152 153 153 185
275 320 329 304 241 230 222 220 218 232 238 193 223 174 158 171 205 155 147 143 139 143 143 141 143 139 138 136 136 138 139 142 148 149 148 148 149 151 149 148 147 144 136 108
276 296 257 251 310 238 214 228 222 243 237 201 243 211 187 188 183 169 154 147 145 144 144 140 136 131 129 130 129 131 131 138 146 147 144 145 149 149 147 144 141 131 128 19
248 303 300 306 314 332 186 244 227 224 243 212 114 76 347 147 145 149 143 137 135 135 130 131 132 132 125 124 126 127 129 138 145 147 144 147 147 145 144 142 133 133 117 41
271 258 272 251 354 329 168 279 4 219 232 190 143 184 217 149 121 123 127 131 131 129 125 127 131 130 121 123 123 124 134 141 144 146 146 144 143 143 141 139 134 129 103 43
231 267 278 267 321 325 83 249 318 341 299 175 196 235 137 130 129 131 132 126 126 131 131 132 132 126 119 121 118 132 138 137 138 140 139 140 140 142 141 137 132 112 67 24
213 224 258 318 130 200 299 277 265 305 299 168 109 115 122 122 122 121 123 125 128 123 122 125 127 119 114 110 127 135 135 132 131 134 136 138 142 139 133 131 121 94 39 9
209 227 292 355 341 325 287 269 307 307 5 127 120 121 123 124 124 123 120 120 124 117 112 113 119 122 114 122 132 133 131 130 129 132 134 135 137 135 129 125 112 65 29 358
339 11 341 330 318 327 311 306 10 38 107 120 119 119 117 115 117 114 115 116 119 115 108 101 105 109 116 129 135 135 129 129 130 130 129 129 131 131 128 107 79 64 25 359
270 309 310 328 354 340 345 52 60 62 82 105 113 108 111 114 114 108 106 109 110 106 103 103 107 112 128 134 138 131 128 129 128 127 128 126 120 110 104 99 75 48 20 8
273 329 275 291 326 354 39 63 69 87 84 83 97 107 107 104 106 104 103 104 96 96 99 102 109 118 129 137 139 133 127 126 126 126 125 124 119 114 96 88 81 52 30 360
257 327 59 72 40 55 76 79 85 89 93 99 92 99 100 101 100 103 100 98 99 103 104 106 110 116 123 129 134 132 127 128 127 125 126 124 118 114 106 87 77 58 31 1
335 344 16 25 73 74 81 84 87 87 87 90 96 93 96 93 86 86 90 98 100 99 97 102 107 110 120 126 124 125 127 128 130 132 125 115 110 106 104 95 89 40 24 18
40 79 94 91 87 77 80 88 85 85 87 83 81 83 84 86 87 88 93 97 98 98 101 106 109 113 122 126 128 128 128 128 126 119 112 114 117 113 115 119 80 38 18 22
66 74 82 82 83 80 82 80 88 85 85 85 84 83 85 86 87 88 90 95 100 99 104 112 117 125 131 130 125 118 113 113 119 123 124 118 117 119 103 77 54 30 15 7
72 67 73 72 71 71 72 75 79 83 83 81 85 92 92 89 84 83 85 98 104 110 118 121 122 122 116 113 118 120 123 118 119 120 121 121 121 108 81 58 42 25 10 359
63 58 64 69 76 77 69 67 69 71 72 80 81 82 81 86 94 94 98 107 108 106 109 115 121 120 117 120 128 131 130 124 121 119 121 125 104 83 72 52 32 14 0 2
58 60 56 58 64 67 67 68 68 71 71 78 82 80 84 88 96 105 112 106 103 104 115 120 125 125 123 122 129 128 126 126 126 124 119 109 90 67 53 34 19 11 5 3
46 50 54 54 52 56 60 59 68 69 70 79 84 81 80 89 107 114 115 102 113 122 130 135 131 127 133 127 129 129 133 133 127 117 104 88 67 51 32 30 20 7 6 360
48 52 53 56 56 56 59 63 70 68 78 85 86 86 92 101 110 121 117 107 117 122 122 129 132 132 128 127 134 137 135 129 120 109 89 81 51 35 35 23 10 5 355 350
47 52 54 58 59 55 56 66 73 77 78 81 87 94 99 99 107 107 106 115 121 127 137 136 133 131 132 133 134 133 129 122 114 111 101 79 39 25 17 2 352 355 353 349
50 54 54 53 57 61 63 63 67 72 73 73 75 78 83 85 98 112 105 120 125 128 140 130 130 124 124 134 137 132 124 125 137 139 130 76 40 17 355 344 343 345 349 349
50 50 54 64 67 58 50 51 60 64 69 70 71 73 90 100 99 100 118 113 131 138 159 158 145 128 132 136 135 141 154 157 158 164 174 228 347 341 327 324 341 342 345 343
59 59 57 51 44 38 41 43 53 50 53 56 56 60 67 67 98 125 131 119 126 142 186 157 141 124 109 152 165 173 175 178 175 181 211 255 294 314 313 326 336 337 342 343
48 47 49 49 44 35 32 34 37 27 25 33 36 39 47 59 100 141 140 145 139 45 73 151 149 137 141 164 176 190 197 204 230 207 260 259 286 303 319 330 329 332 338 340
51 42 41 39 34 27 20 20 12 5 3 16 2 21 7 354 84 224 177 167 173 150 122 166 168 177 176 175 183 204 216 225 233 248 248 258 284 298 330 334 332 333 340 343